| time (UTC) | temp C | wind direction | speed KPH | gust KPH | rain 1hr cm | rain 24hr cm | rain mn cm | humidity % | barometer mb |
| 20260906230120 | 35 | 134 | 6.4 | 17.7 | 0.00 | 0.00 | 0.00 | 49 | 1009.6 |
| 20260906224507 | 35 | 146 | 9.7 | 17.7 | 0.00 | 0.00 | 0.00 | 48 | 1009.5 |
| 20260906223007 | 35 | 113 | 12.9 | 19.3 | 0.00 | 0.00 | 0.00 | 47 | 1009.5 |
| 20260906221505 | 36 | 94 | 6.4 | 16.1 | 0.00 | 0.00 | 0.00 | 46 | 1009.6 |
| 20260906220004 | 36 | 98 | 9.7 | 19.3 | 0.00 | 0.00 | 0.00 | 45 | 1009.6 |
| 20260906214508 | 36 | 100 | 8.0 | 16.1 | 0.00 | 0.00 | 0.00 | 43 | 1009.8 |
| 20260906213002 | 36 | 129 | 3.2 | 17.7 | 0.00 | 0.00 | 0.00 | 44 | 1009.8 |
| 20260906211501 | 37 | 87 | 9.7 | 17.7 | 0.00 | 0.00 | 0.00 | 43 | 1009.8 |
| 20260906210059 | 36 | 132 | 8.0 | 16.1 | 0.00 | 0.00 | 0.00 | 44 | 1010.0 |
| 20260906204607 | 37 | 112 | 11.3 | 20.9 | 0.00 | 0.00 | 0.00 | 45 | 1010.2 |
| 20260906203055 | 36 | 114 | 14.5 | 20.9 | 0.00 | 0.00 | 0.00 | 45 | 1010.4 |
| 20260906201603 | 36 | 148 | 11.3 | 24.1 | 0.00 | 0.00 | 0.00 | 47 | 1010.5 |
| 20260906200051 | 35 | 108 | 8.0 | 16.1 | 0.00 | 0.00 | 0.00 | 46 | 1010.8 |
| 20260906194549 | 36 | 65 | 8.0 | 14.5 | 0.00 | 0.00 | 0.00 | 45 | 1010.9 |
| 20260906193045 | 37 | 334 | 4.8 | 30.6 | 0.00 | 0.00 | 0.00 | 45 | 1011.3 |
| 20260906191542 | 36 | 13 | 6.4 | 20.9 | 0.00 | 0.00 | 0.00 | 48 | 1011.3 |
| 20260906190038 | 35 | 98 | 4.8 | 19.3 | 0.00 | 0.00 | 0.00 | 50 | 1011.4 |
| 20260906184537 | 35 | 98 | 8.0 | 19.3 | 0.00 | 0.00 | 0.00 | 50 | 1011.8 |
| 20260906183033 | 35 | 46 | 8.0 | 20.9 | 0.00 | 0.00 | 0.00 | 50 | 1011.9 |
| 20260906181530 | 35 | 119 | 3.2 | 14.5 | 0.00 | 0.00 | 0.00 | 49 | 1012.0 |
| 20260906180025 | 36 | 55 | 8.0 | 16.1 | 0.00 | 0.00 | 0.00 | 49 | 1012.4 |
| 20260906174521 | 35 | 141 | 4.8 | 24.1 | 0.00 | 0.00 | 0.00 | 49 | 1012.5 |
| 20260906173018 | 35 | 127 | 6.4 | 19.3 | 0.00 | 0.00 | 0.00 | 51 | 1012.7 |
| 20260906171515 | 35 | 19 | 9.7 | 17.7 | 0.00 | 0.00 | 0.00 | 53 | 1012.9 |
| 20260906170014 | 34 | 78 | 6.4 | 14.5 | 0.00 | 0.00 | 0.00 | 54 | 1013.3 |
| 20260906164510 | 33 | 111 | 8.0 | 14.5 | 0.00 | 0.00 | 0.00 | 55 | 1013.4 |
| 20260906163005 | 33 | 80 | 6.4 | 16.1 | 0.00 | 0.00 | 0.00 | 57 | 1013.5 |
| 20260906161606 | 33 | 39 | 3.2 | 9.7 | 0.00 | 0.00 | 0.00 | 57 | 1013.3 |
| 20260906160056 | 32 | 19 | 4.8 | 14.5 | 0.00 | 0.00 | 0.00 | 59 | 1013.4 |
| 20260906154552 | 32 | 355 | 1.6 | 9.7 | 0.00 | 0.00 | 0.00 | 61 | 1013.4 |
| 20260906153048 | 32 | 74 | 3.2 | 8.0 | 0.00 | 0.00 | 0.00 | 63 | 1013.3 |
| 20260906151551 | 31 | 29 | 3.2 | 8.0 | 0.00 | 0.00 | 0.00 | 65 | 1013.2 |
| 20260906150039 | 30 | 150 | 1.6 | 8.0 | 0.00 | 0.00 | 0.00 | 68 | 1013.1 |
| 20260906144537 | 29 | 53 | 1.6 | 8.0 | 0.00 | 0.00 | 0.00 | 71 | 1013.1 |
| 20260906143034 | 28 | 141 | 3.2 | 6.4 | 0.00 | 0.00 | 0.00 | 74 | 1013.3 |
| 20260906141533 | 27 | 148 | 3.2 | 8.0 | 0.00 | 0.00 | 0.00 | 77 | 1013.4 |
| 20260906140021 | 27 | 155 | 6.4 | 12.9 | 0.00 | 0.00 | 0.00 | 78 | 1013.4 |
| 20260906134525 | 26 | 157 | 6.4 | 12.9 | 0.00 | 0.00 | 0.00 | 81 | 1013.4 |
| 20260906133015 | 25 | 130 | 3.2 | 8.0 | 0.00 | 0.00 | 0.00 | 85 | 1013.3 |
| 20260906131508 | 24 | 167 | 0.0 | 3.2 | 0.00 | 0.00 | 0.00 | 86 | 1013.2 |
| 20260906130003 | 23 | 168 | 0.0 | 0.0 | 0.00 | 0.00 | 0.00 | 86 | 1013.1 |
| 20260906124601 | 23 | 168 | 0.0 | 0.0 | 0.00 | 0.00 | 0.00 | 85 | 1012.9 |
| 20260906123135 | 23 | 146 | 0.0 | 0.0 | 0.00 | 0.00 | 0.00 | 84 | 1012.8 |
| 20260906121555 | 23 | 146 | 0.0 | 0.0 | 0.00 | 0.00 | 0.00 | 84 | 1012.7 |
| 20260906120052 | 23 | 146 | 0.0 | 0.0 | 0.00 | 0.00 | 0.00 | 83 | 1012.5 |
| 20260906114553 | 23 | 146 | 0.0 | 3.2 | 0.00 | 0.00 | 0.00 | 84 | 1012.3 |
| 20260906113050 | 23 | 146 | 1.6 | 6.4 | 0.00 | 0.00 | 0.00 | 84 | 1012.3 |
| 20260906111549 | 23 | 146 | 0.0 | 0.0 | 0.00 | 0.00 | 0.00 | 83 | 1012.1 |
| 20260906110047 | 23 | 146 | 0.0 | 0.0 | 0.00 | 0.00 | 0.00 | 83 | 1012.0 |
| 20260906104546 | 23 | 146 | 0.0 | 0.0 | 0.00 | 0.00 | 0.00 | 83 | 1011.9 |
| 20260906103048 | 23 | 146 | 1.6 | 4.8 | 0.00 | 0.00 | 0.00 | 82 | 1011.7 |
| 20260906101544 | 24 | 146 | 0.0 | 0.0 | 0.00 | 0.00 | 0.00 | 82 | 1011.7 |
| 20260906100042 | 24 | 146 | 1.6 | 6.4 | 0.00 | 0.00 | 0.00 | 82 | 1011.6 |
| 20260906094541 | 24 | 146 | 1.6 | 4.8 | 0.00 | 0.00 | 0.00 | 82 | 1011.6 |
| 20260906093042 | 25 | 146 | 0.0 | 4.8 | 0.00 | 0.00 | 0.00 | 81 | 1011.3 |
| 20260906091548 | 25 | 154 | 0.0 | 3.2 | 0.00 | 0.00 | 0.00 | 79 | 1011.2 |
| 20260906090034 | 25 | 154 | 0.0 | 4.8 | 0.00 | 0.00 | 0.00 | 78 | 1011.3 |
| 20260906084532 | 26 | 154 | 0.0 | 3.2 | 0.00 | 0.00 | 0.00 | 77 | 1011.3 |
| 20260906083035 | 26 | 154 | 0.0 | 0.0 | 0.00 | 0.00 | 0.00 | 76 | 1011.1 |
| 20260906081529 | 26 | 154 | 0.0 | 3.2 | 0.00 | 0.00 | 0.00 | 76 | 1011.2 |
| 20260906080031 | 26 | 154 | 1.6 | 4.8 | 0.00 | 0.00 | 0.00 | 76 | 1011.4 |
| 20260906074525 | 26 | 147 | 3.2 | 8.0 | 0.00 | 0.00 | 0.00 | 75 | 1011.4 |
| 20260906073022 | 27 | 174 | 1.6 | 6.4 | 0.00 | 0.00 | 0.00 | 74 | 1011.5 |
| 20260906071519 | 27 | 173 | 1.6 | 4.8 | 0.00 | 0.00 | 0.00 | 74 | 1011.7 |
| 20260906070016 | 27 | 177 | 0.0 | 3.2 | 0.00 | 0.00 | 0.00 | 72 | 1011.8 |
| 20260906064515 | 27 | 177 | 1.6 | 4.8 | 0.00 | 0.00 | 0.00 | 72 | 1011.9 |
| 20260906063013 | 28 | 178 | 0.0 | 4.8 | 0.00 | 0.00 | 0.00 | 71 | 1012.1 |
| 20260906061512 | 28 | 177 | 0.0 | 0.0 | 0.00 | 0.00 | 0.00 | 71 | 1012.1 |
| 20260906060010 | 28 | 177 | 4.8 | 12.9 | 0.00 | 0.00 | 0.00 | 70 | 1012.2 |
| 20260906054509 | 28 | 186 | 8.0 | 20.9 | 0.00 | 0.00 | 0.00 | 70 | 1012.0 |
| 20260906053006 | 28 | 171 | 9.7 | 14.5 | 0.00 | 0.00 | 0.00 | 70 | 1012.0 |
| 20260906051504 | 28 | 175 | 11.3 | 19.3 | 0.00 | 0.00 | 0.00 | 69 | 1011.8 |
| 20260906050001 | 28 | 167 | 9.7 | 14.5 | 0.00 | 0.00 | 0.00 | 68 | 1011.7 |
| 20260906044501 | 28 | 166 | 11.3 | 19.3 | 0.00 | 0.00 | 0.00 | 68 | 1011.6 |
| 20260906043103 | 29 | 150 | 12.9 | 17.7 | 0.00 | 0.00 | 0.00 | 67 | 1011.6 |
| 20260906041602 | 29 | 171 | 11.3 | 14.5 | 0.00 | 0.00 | 0.00 | 67 | 1011.6 |
| 20260906040059 | 29 | 155 | 9.7 | 16.1 | 0.00 | 0.00 | 0.00 | 66 | 1011.7 |
| 20260906034601 | 30 | 161 | 8.0 | 16.1 | 0.00 | 0.00 | 0.00 | 65 | 1011.8 |
| 20260906033109 | 30 | 157 | 8.0 | 16.1 | 0.00 | 0.00 | 0.00 | 64 | 1011.9 |
| 20260906031558 | 30 | 122 | 6.4 | 16.1 | 0.00 | 0.00 | 0.00 | 63 | 1011.9 |
| 20260906030057 | 31 | 128 | 8.0 | 14.5 | 0.00 | 0.00 | 0.00 | 62 | 1011.5 |
| 20260906024557 | 31 | 165 | 8.0 | 19.3 | 0.00 | 0.00 | 0.00 | 61 | 1011.2 |
| 20260906023056 | 31 | 152 | 12.9 | 24.1 | 0.00 | 0.00 | 0.00 | 60 | 1010.8 |
| 20260906021558 | 31 | 157 | 8.0 | 12.9 | 0.00 | 0.00 | 0.00 | 57 | 1010.7 |
| 20260906020105 | 32 | 139 | 6.4 | 14.5 | 0.00 | 0.00 | 0.00 | 57 | 1010.7 |
| 20260906014555 | 32 | 134 | 6.4 | 17.7 | 0.00 | 0.00 | 0.00 | 56 | 1010.5 |
| 20260906013103 | 32 | 159 | 9.7 | 19.3 | 0.00 | 0.00 | 0.00 | 56 | 1010.2 |
| 20260906011602 | 32 | 135 | 11.3 | 22.5 | 0.00 | 0.00 | 0.00 | 55 | 1010.1 |
| 20260906010052 | 33 | 142 | 9.7 | 20.9 | 0.00 | 0.00 | 0.00 | 54 | 1009.9 |
| 20260906004601 | 33 | 153 | 11.3 | 20.9 | 0.00 | 0.00 | 0.00 | 52 | 1009.7 |
| 20260906003151 | 35 | 105 | 17.7 | 25.7 | 0.00 | 0.00 | 0.00 | 49 | 1009.8 |
| 20260906001552 | 35 | 125 | 4.8 | 14.5 | 0.00 | 0.00 | 0.00 | 43 | 1009.6 |
| 20260906000056 | 36 | 81 | 8.0 | 12.9 | 0.00 | 0.00 | 0.00 | 43 | 1009.5 |
| 20260905234550 | 36 | 126 | 8.0 | 17.7 | 0.00 | 0.00 | 0.00 | 42 | 1009.5 |
| 20260905233049 | 36 | 115 | 12.9 | 17.7 | 0.00 | 0.00 | 0.00 | 41 | 1009.5 |
| 20260905231549 | 37 | 120 | 4.8 | 14.5 | 0.00 | 0.00 | 0.00 | 40 | 1009.5 |